Skip Page Navigation
NASA JPL Caltech
NASA Logo - Jet Propulsion Laboratory + View the NASA Portal
+ Center for Near-Earth Object Studies
JPL Home Earth Solar System Stars & Galaxies Technology
JPL Solar System Dynamics
BODIES ORBITS EPHEMERIDES TOOLS PHYSICAL DATA DISCOVERY FAQ SITE MAP
IMPORTANT: The SSD Announcement email list is now available. Major changes are coming in the near future, including possible hostname and/or URL changes. To be notified of such changes, subscribe to this email list.

Please visit this page for more details.


JPL Small-Body Database Browser
Search: [ help ]  
183586 (2003 SF204)
Classification: Main-belt Asteroid          SPK-ID: 2183586
Ephemeris | Orbit Diagram | Orbital Elements | Mission Design | Physical Parameters | Discovery Circumstances ]

[ show orbit diagram ]
Orbital Elements at Epoch 2458600.5 (2019-Apr-27.0) TDB
Reference: JPL 10 (heliocentric ecliptic J2000)
 Element Value Uncertainty (1-sigma)   Units 
e .2225212677817779 5.9776e-08  
a 2.44296980852087 1.2525e-08 au
q 1.899357069576199 1.524e-07 au
i 2.328984374571054 5.994e-06 deg
node 181.4325920518617 0.00016076 deg
peri 192.2874520660604 0.00016217 deg
M 30.67814361218625 2.202e-05 deg
tp 2458481.649188355050
(2018-Dec-29.14918836)
8.4687e-05 TDB
period 1394.68322246154
3.82
1.0726e-05
2.937e-08
d
yr
n .2581231309032451 1.9851e-09 deg/d
Q 2.986582547465542 1.5312e-08 au
  Orbit Determination Parameters
   # obs. used (total)      236  
   data-arc span      7969 days (21.82 yr)  
   first obs. used      1997-01-11  
   last obs. used      2018-11-06  
   planetary ephem.      DE431  
   SB-pert. ephem.      SB431-N16  
   condition code      0  
   norm. resid. RMS      .56025  
   source      ORB  
   producer      Otto Matic  
   solution date      2019-Jul-13 12:36:53  

Additional Information
 Earth MOID = .899271 au 
 Jupiter MOID = 2.47377 au 
 T_jup = 3.465 
[ show covariance matrix ]

Ephemeris | Orbit Diagram | Orbital Elements | Mission Design | Physical Parameters | Discovery Circumstances ]

Physical Parameter Table
Parameter Symbol Value Units Sigma Reference Notes
absolute magnitude H 17.0   n/a MPO367153  

183586 (2003 SF204)          Discovered 2003-Sep-22 by Spacewatch at Kitt Peak
Reference: 20080420/Numbers.arcLast Updated: 2008-04-23
Ephemeris | Orbit Diagram | Orbital Elements | Mission Design | Physical Parameters | Discovery Circumstances ]
ABOUT SSD CREDITS/AWARDS PRIVACY/COPYRIGHT GLOSSARY LINKS
FirstGov
(server date/time)  
NASA Home Page
Site Manager:   Ryan S. Park
Webmaster  Alan B. Chamberlin